Location: Castifao
(42.5040°N, 9.1124°E)
Time: 05:01:18
(UTC+00:00)

Shenzhou-11 Module - Pass Details

Date: 23 January 2020
Orbit: 297 x 311 km, 42.8° (Epoch: 26 February)

Event Time Altitude Azimuth Distance (km) Brightness Sun altitude
Rises 17:01:31 0° 237° (WSW) 2,030 7.7 -7.1°
Reaches altitude 10° 17:03:34 10° 228° (SW) 1,200 5.9 -7.4°
Maximum altitude 17:06:05 36° 159° (SSE) 512 2.7 -7.8°
Enters shadow 17:08:27 11° 91° (E) 1,144 3.9 -8.3°
